EHI
17 19 21 21 17 14 11 8 6 4 2 2 1 0 0 0 0 0 0 0 0 0 0 0 0 0 0 0 0 0 0 0 0 0 0 0 0 0 0 0 0 0 0
20 20 21 21 17 14 12 10 8 6 3 1 1 1 0 0 0 0 0 0 0 0 0 0 0 0 0 0 0 0 0 0 0 0 0 0 0 0 0 0 0 0 0
22 19 18 20 19 17 16 13 10 7 3 1 1 1 0 0 0 0 0 0 0 0 0 0 0 0 0 0 0 0 0 0 0 0 0 0 0 0 0 0 0 0 0
19 15 16 20 21 21 20 18 14 8 3 0 0 0 0 0 0 0 0 0 0 0 0 0 0 0 0 0 0 0 0 0 0 0 0 0 0 0 0 0 0 0 0
15 14 18 24 24 22 21 20 17 12 6 3 1 0 0 0 0 0 0 0 0 0 0 0 0 0 0 0 0 0 0 0 0 0 0 0 0 0 0 0 0 0 0
15 15 20 26 26 22 19 18 16 13 9 6 4 1 0 0 0 0 0 0 0 0 0 0 0 0 0 0 0 0 0 0 0 0 0 0 0 0 0 0 0 0 0
18 17 19 24 24 20 16 14 13 12 10 8 4 2 0 0 0 0 0 0 0 0 0 0 0 0 0 0 0 0 0 0 0 0 0 0 0 0 0 0 0 0 0
17 14 15 19 18 15 12 10 11 11 10 8 5 2 0 0 0 0 0 0 0 0 0 0 0 0 0 0 0 0 0 0 0 0 0 0 0 0 0 0 0 0 0
11 9 8 9 10 8 7 6 7 8 9 9 6 3 0 0 0 0 0 0 0 0 0 0 0 0 0 0 0 0 0 0 0 0 0 0 0 0 0 0 0 0 0
8 5 2 3 3 3 2 2 3 4 4 5 4 2 0 0 0 0 0 0 0 0 0 0 0 0 0 0 0 0 0 0 0 0 0 0 0 0 0 0 0 0 0
8 5 1 1 2 1 0 0 1 1 1 1 1 0 0 0 0 0 0 0 0 0 0 0 0 0 0 0 0 0 0 0 0 0 0 0 0 0 0 0 0 0 0
8 5 2 1 1 1 0 0 0 0 0 0 0 0 0 0 0 0 0 0 0 0 0 0 0 0 0 0 0 0 0 0 0 0 0 0 0 0 0 0 0 0 0
6 6 4 2 1 0 0 0 0 0 0 0 0 0 0 0 0 0 0 0 0 0 0 0 0 0 0 0 0 0 0 0 0 0 0 0 0 0 0 0 0 0 0
5 6 5 4 3 1 1 0 0 0 0 0 0 0 0 0 0 0 0 0 0 0 0 0 0 0 0 0 0 0 0 0 0 0 0 0 0 0 0 0 0 0 0
4 5 5 5 4 2 2 1 0 0 0 0 0 0 0 0 0 0 0 0 0 0 0 0 0 0 0 0 0 0 0 0 0 0 0 0 0 0 0 0 0 0 0
3 4 4 4 3 2 2 2 0 0 0 0 0 0 0 0 0 0 0 0 0 0 0 0 0 0 0 0 0 0 0 0 0 0 0 0 0 0 0 0 0 0 0
3 3 4 3 2 2 2 1 0 0 0 0 0 0 0 0 0 0 0 0 0 0 0 0 0 0 0 0 0 0 0 0 0 0 0 0 0 0 0 0 0 0 0
2 2 2 2 2 1 1 0 0 0 0 0 0 0 0 0 0 0 0 0 0 0 0 0 0 0 0 0 0 0 0 0 0 0 0 0 0 0 0 0 0 0 0
1 1 1 1 2 2 1 0 0 0 0 0 0 0 0 0 0 0 0 0 0 0 0 0 0 0 0 0 0 0 0 0 0 0 0 0 0 0 0 0 0 0 0
0 0 0 1 1 2 1 0 0 0 0 0 0 0 0 0 0 0 0 0 0 0 0 0 0 0 0 0 0 0 0 0 0 0 0 0 0 0 0 0 0 0 0
0 0 0 0 0 1 1 0 0 0 0 0 0 0 0 0 0 0 0 0 0 0 0 0 0 0 0 0 0 0 0 0 0 0 0 0 0 0 0 0 0 0 0
0 0 0 0 0 0 0 0 0 0 0 0 0 0 0 0 0 0 0 0 0 0 0 0 0 0 0 0 0 0 0 0 0 0 0 0 0 0 0 0 0 0 0
0 0 0 0 0 0 0 0 0 0 0 0 0 0 0 0 0 0 0 0 0 0 0 0 0 0 0 0 0 0 0 0 0 0 0 0 0 0 0 0 0 0 0
0 0 0 0 0 0 0 0 0 0 0 0 0 0 0 0 0 0 0 0 0 0 0 0 0 0 0 0 0 0 0 0 0 0 0 0 0 0 0 0 0 0 0
0 0 0 0 0 0 0 0 0 0 0 0 0 0 0 0 0 0 0 0 1 1 1 0 0 0 0 0 0 0 0 0 0 0 0 0 0 0 0 0 0 0 0
0 0 0 0 0 0 0 0 0 0 0 0 0 0 0 0 0 0 0 0 1 2 2 1 0 0 0 0 0 0 0 0 0 0 0 0 0 0 0 0 0 0 0
Wind_Speed
9 11 12 12 11 12 11 11 11 11 11 11 11 11 11 11 11 11 10 11 11 11 11 12 13 13 13 14 14 14 14 14 14 14 14 13 13 14 14 13 13 10 16
12 12 12 12 12 12 11 11 10 10 10 10 10 10 10 10 10 10 10 10 10 10 11 12 12 13 13 13 13 13 13 12 11 11 10 10 11 13 14 14 13 10 15
13 13 11 11 11 11 11 10 10 10 9 9 10 10 10 10 10 10 10 10 10 10 11 11 12 12 12 12 12 11 10 8 6 5 7 5 8 13 14 13 13 14 14
12 11 10 11 12 12 11 11 10 10 9 9 9 9 9 10 10 9 10 10 10 10 10 11 11 11 11 11 11 9 8 5 4 3 4 6 6 12 13 12 13 13 13
11 10 11 11 12 12 11 10 10 9 9 8 8 8 9 9 9 9 9 9 9 10 10 10 10 11 10 10 9 8 5 4 3 3 6 7 6 11 12 12 12 12 13
10 10 11 11 12 12 11 10 10 9 9 8 8 8 8 9 9 9 9 9 9 9 10 10 10 10 10 9 8 6 3 3 3 3 6 6 5 10 12 12 12 12 12
9 10 10 11 11 11 11 10 9 9 8 8 8 8 8 8 9 9 9 9 9 9 9 9 10 9 9 8 7 4 3 4 2 4 6 6 6 10 11 11 11 12 12
9 10 10 11 11 10 10 10 9 9 8 7 7 7 8 8 9 9 9 9 9 9 9 9 9 9 9 7 6 3 3 3 3 6 6 5 7 10 11 10 10 11 11
8 9 8 7 8 9 9 9 9 8 8 7 7 7 7 7 8 9 9 9 8 8 9 9 9 9 8 7 4 2 2 4 3 3 6 4 7 9 10 10 10 10 10
7 7 7 6 6 6 6 8 8 8 8 7 7 6 6 6 7 8 7 8 8 8 8 9 9 8 8 6 3 1 2 3 2 4 4 5 8 9 10 9 9 10 10
5 5 5 6 6 6 5 7 7 7 7 7 5 6 5 4 5 5 6 7 8 8 8 9 9 8 7 5 3 1 1 0 2 4 3 7 9 9 9 9 9 9 9
5 5 4 4 5 5 5 5 4 4 5 4 4 4 3 3 3 5 7 8 8 8 8 8 8 8 5 3 2 1 0 1 2 3 4 8 9 8 8 8 8 8 8
5 4 4 4 4 4 3 3 2 2 3 3 4 4 3 3 3 3 3 4 5 6 4 5 5 3 3 3 2 1 0 1 2 3 5 8 8 8 8 7 7 7 7
5 4 4 4 4 4 3 3 3 2 2 2 3 3 2 2 2 3 3 3 3 3 4 3 2 3 3 3 3 3 1 1 2 3 4 8 7 7 7 6 6 6 6
6 5 4 4 4 3 3 3 3 2 3 3 3 2 3 3 3 3 2 3 3 2 3 3 3 3 2 2 2 2 2 2 3 3 3 7 7 6 6 5 5 5 5
5 5 4 4 4 4 3 3 3 2 2 3 3 2 3 2 3 3 2 2 2 2 3 3 3 3 2 2 2 2 2 2 3 4 4 4 6 5 5 5 5 5 5
6 6 5 5 4 4 4 3 3 3 3 2 2 3 3 3 3 2 2 2 2 2 2 2 3 2 3 2 2 2 2 2 3 4 4 3 3 4 5 5 4 4 4
6 6 5 5 5 4 4 3 3 3 3 3 2 2 2 3 3 2 2 2 2 2 2 2 2 2 2 2 2 2 2 2 2 3 3 3 3 3 3 4 4 4 4
6 6 6 5 5 5 4 3 3 3 3 3 3 2 2 2 3 3 2 2 2 2 2 2 2 2 3 2 3 2 2 2 1 2 3 3 3 3 3 4 4 4 3
6 6 6 6 5 5 4 3 3 3 2 2 2 2 2 2 2 2 2 3 3 2 2 2 3 3 3 3 3 2 2 1 1 2 2 2 2 3 3 3 2 2 3
5 5 6 6 5 5 4 4 3 3 2 2 2 3 3 2 2 3 2 3 3 3 3 3 3 4 3 3 3 2 1 1 1 1 1 1 2 2 3 3 2 2 2
6 6 6 6 6 5 4 4 3 3 2 2 2 3 3 3 3 2 3 3 3 3 3 3 3 3 2 2 3 3 1 0 0 0 1 1 1 1 2 2 2 3 2
6 6 6 6 6 6 6 4 4 3 2 2 2 2 2 3 3 2 3 3 3 3 3 3 3 4 3 2 1 2 3 3 1 0 1 1 1 1 1 1 2 2 3
5 5 5 6 6 6 6 6 6 5 4 4 3 3 3 3 3 3 3 3 3 3 3 3 3 3 4 3 1 1 1 2 3 2 0 0 1 1 1 1 1 1 2
4 4 4 5 5 6 6 6 6 4 3 3 3 4 3 3 3 3 3 3 3 3 3 3 2 3 2 2 2 1 0 0 1 3 2 1 0 0 1 1 1 1 1
3 3 3 4 5 5 6 6 5 5 5 5 4 4 3 2 2 3 3 3 3 3 3 3 3 3 2 2 2 1 2 1 2 2 2 2 1 1 1 1 1 1 1
Wind_Direction
121 129 135 131 128 127 125 123 123 122 122 122 123 121 118 115 112 111 109 108 106 105 104 100 97 93 89 86 84 83 82 81 80 79 75 72 73 72 72 71 72 69 71
125 129 132 130 128 126 125 122 119 119 120 123 124 124 122 121 119 116 114 112 108 104 103 102 100 96 92 90 88 88 88 87 88 86 80 70 70 71 72 71 73 74 73
123 129 131 128 126 124 120 119 121 122 123 124 126 126 125 124 123 121 118 115 111 106 103 102 101 98 96 94 92 92 91 90 89 90 91 85 77 76 76 77 77 76 75
121 127 129 125 126 123 119 118 120 125 126 125 127 128 128 127 125 122 119 116 113 111 107 104 103 102 100 99 98 96 91 79 56 58 81 82 79 82 78 80 81 78 77
119 125 125 126 125 123 121 120 121 123 126 127 127 127 131 131 129 126 120 116 113 111 110 108 107 105 103 103 102 99 86 47 33 51 76 77 73 83 80 79 81 80 78
121 122 126 126 124 125 122 121 122 124 127 129 129 130 132 133 132 128 122 119 114 113 114 112 110 108 105 105 105 98 69 10 12 69 78 81 77 84 84 82 81 81 79
123 123 130 125 125 127 125 124 124 124 126 131 135 134 133 136 134 130 125 123 122 121 119 118 117 114 110 109 106 94 43 354 40 75 78 76 82 86 87 86 83 84 81
125 126 131 126 125 127 129 128 127 127 128 127 133 137 135 133 135 136 133 130 130 131 129 125 121 119 116 113 110 90 26 3 59 85 84 81 91 89 86 86 86 85 83
121 125 129 133 130 127 129 129 130 130 128 125 123 125 129 132 135 140 138 137 135 133 133 131 127 123 120 120 116 77 5 356 32 78 91 87 96 94 91 88 85 87 85
114 125 136 140 137 133 129 130 129 129 128 127 127 126 127 135 142 144 144 142 141 138 136 135 132 130 126 126 128 95 342 346 61 81 86 96 99 100 95 91 87 87 87
119 127 137 142 141 139 140 139 134 132 133 136 136 147 152 162 157 149 145 145 145 143 142 142 142 139 134 139 153 188 315 21 80 83 84 104 104 101 97 94 91 91 89
141 140 136 139 141 141 145 141 148 146 147 155 154 163 180 166 148 143 147 151 151 148 149 153 153 151 150 153 166 188 254 99 93 93 96 108 109 104 102 98 94 94 92
150 146 140 135 136 139 137 147 153 150 156 161 159 167 163 145 138 138 143 149 154 161 160 159 164 172 161 149 156 168 149 87 92 96 104 112 112 109 106 102 99 97 97
151 147 138 138 137 140 141 148 148 150 154 152 156 158 146 134 137 142 148 156 162 163 159 163 170 166 156 158 156 151 146 106 96 102 114 115 112 114 112 109 109 107 103
154 152 150 146 143 141 140 149 146 151 154 147 140 143 139 134 142 145 150 155 157 149 154 162 162 161 162 160 148 146 141 125 108 102 114 119 114 114 118 114 115 116 112
159 154 155 153 149 142 141 147 143 141 137 129 130 137 137 136 141 146 144 148 149 154 156 160 162 155 152 144 140 133 125 114 113 112 118 117 115 118 122 126 122 117 114
160 153 156 154 144 145 145 146 131 127 121 118 126 134 131 126 135 141 141 141 148 150 146 141 139 131 134 136 130 117 108 105 112 117 122 124 119 115 121 127 122 117 116
154 154 155 158 150 147 139 135 125 127 124 121 121 125 133 133 139 135 132 140 136 133 131 136 137 131 135 134 126 109 92 91 94 105 111 117 123 123 121 121 121 117 119
155 156 158 154 151 149 142 133 125 124 124 123 121 119 131 139 140 139 140 140 135 126 134 145 138 140 136 131 123 110 100 100 106 100 104 107 111 117 119 118 120 119 107
153 156 157 155 153 150 141 132 122 121 120 114 118 121 125 133 141 135 139 148 141 134 133 136 141 132 135 135 118 103 105 108 103 114 124 114 117 122 120 120 121 112 108
154 159 159 158 157 151 146 148 145 149 137 120 113 119 132 142 146 140 139 146 146 145 148 143 137 139 139 125 108 98 57 77 93 114 139 134 130 132 126 125 126 120 116
162 165 160 160 160 156 153 151 151 150 142 139 131 127 137 142 142 143 144 149 148 144 146 150 140 141 155 148 138 136 142 10 348 160 120 138 139 118 114 121 124 122 120
161 168 169 166 161 160 152 142 138 125 123 130 146 147 151 146 142 140 148 147 150 146 155 164 161 157 168 190 168 153 156 184 175 165 165 143 133 112 114 115 113 116 116
166 164 165 164 161 159 155 153 156 155 161 173 166 156 158 156 152 151 152 149 151 150 151 169 164 163 165 180 210 251 178 144 149 154 271 191 160 145 148 139 125 111 110
143 150 159 158 159 159 158 156 157 162 168 153 150 152 159 155 155 157 163 157 156 156 155 161 158 155 164 169 176 188 185 49 116 148 175 191 179 191 163 172 145 124 116
114 127 144 157 161 163 163 160 164 170 166 154 160 163 162 153 157 165 168 162 163 162 161 161 163 162 169 167 165 167 159 162 179 154 165 172 180 215 167 121 122 131 124